Regional Weather Roundup
Issued by NWS

Home | Current Version | Previous Version | Text Only | Print | Product List | Glossary Off
Versions: 1 2 3 4 5 6 7 8 9 10 11 12 13 14 15 16 17 18 19 20 21 22 23 24 25 26 27 28 29 30 31 32 33 34 35 36 37 38 39 40 41 42 43 44 45 46 47 48 49 50

000
ASUS43 KFSD 011702
RWRSD

WEATHER ROUNDUP FOR SOUTH DAKOTA
NATIONAL WEATHER SERVICE SIOUX FALLS SD
1200 PM CDT SAT AUG 01 2015

NOTE: "FAIR" INDICATES FEW OR NO CLOUDS BELOW 12,000 FEET WITH NO
SIGNIFICANT WEATHER AND/OR OBSTRUCTIONS TO VISIBILITY.


SDZ001>005-009-010-012>017-011800-
NORTHWEST AND NORTH CENTRAL SOUTH DAKOTA

CITY           SKY/WX    TMP DP  RH WIND       PRES   REMARKS
BUFFALO          N/A     91  32  12 N14       29.92R
FAITH            N/A     89  47  23 NW9       29.94S
MOBRIDGE       SUNNY     85  66  53 S10       29.86F
$$

SDZ012>016-024>037-041>051-057-063-072>074-011800-
SOUTHWEST AND SOUTH CENTRAL SOUTH DAKOTA

CITY           SKY/WX    TMP DP  RH WIND       PRES   REMARKS
RAPID CTY ARPT SUNNY     83  59  44 S6        30.03S
PIERRE         SUNNY     85  57  38 SW17G25   29.91S
CUSTER         SUNNY     86  39  19 VRB6      30.17S
ELLSWORTH AFB  SUNNY     84  55  36 SW2       30.03R
PHILIP         SUNNY     83  65  54 W15G25    29.97R
PINE RIDGE     SUNNY     81  62  52 SE16G23   30.06R
WINNER         FAIR      70  58  65 S26G38    29.98F
$$

SDZ004>011-016>023-039-040-011800-
NORTHEAST SOUTH DAKOTA

CITY           SKY/WX    TMP DP  RH WIND       PRES   REMARKS
ABERDEEN       MOSUNNY   82  68  62 S12       29.89F
WATERTOWN      MOSUNNY   82  69  64 S10       29.94F
BROOKINGS      SUNNY     82  66  57 S15       29.97F
SISSETON         N/A     77  62  59 S10       29.92F
$$

SDZ017-020-022-023-036>040-048>070-011800-
SOUTHEAST SOUTH DAKOTA

CITY           SKY/WX    TMP DP  RH WIND       PRES   REMARKS
SIOUX FALLS    PTSUNNY   78  64  61 SW12G21   30.00F
HURON          SUNNY     84  65  52 S9        29.91F
MITCHELL       PTSUNNY   77  61  57 S13       29.94F
YANKTON        CLOUDY    77  63  61 SW15      30.00S
$$

ABBREVIATIONS USED IN REMARKS
   TC - TEMPERATURE IN CELSIUS
  WCI - WIND CHILL INDEX
   HX - HEAT INDEX
  VSB - VISIBILITY



USA.gov is the U.S. government's official web portal to all federal, state and local government web resources and services.